星链-32002 (STARLINK-32002)

导读

STARLINK-32002是美国SpaceX公司星链(Starlink)星座的卫星,于2024年7月3日发射。星链是低轨宽带互联网星座,该卫星延续星链设计,采用平板构型与单太阳翼,配备氪工质霍尔推进器,支持自主避撞,运行在近500公里左右的近地轨道,面向全球提供高速宽带互联网接入服务,寿命末期会主动离轨坠入大气层烧毁。

基本信息
目录编号:
60200
目录名称:
STARLINK-32002
国际标识:
2024-124T
轨道中心:
EARTH
卫星名称:
星链-32002 (STARLINK-32002)
卫星全名:
星链-32002 (STARLINK-32002)
卫星状态:
在轨 (已飞行801 天)
发射日期:
2024-07-03 UTC
国别 :
美国 (US)
星等 :
--
该卫星已列入 空间交会检测服务 Space Conjunction Data Service (SCDS) ,当前飞行风险评估等级: 无高风险
轨道信息
数据来源 国际轨道数据
星历时间: 2026-09-11T19:58:19+0800
14小时前
查看轨道信息
半长轴: 6848.877km
偏心率: 0.0001328
轨道倾角: 53.158°
近地点辐角 94.055°
升交点赤经 178.032°
平近点角 266.060°
近地点: 469.83km
远地点: 471.65km
周期: 94.013分钟
每日圈数: 15.317003
详细信息
卫星平台:
Starlink v2.0 mini
运营商:
太空探索技术公司
运营商所在国:
美国
制造商(研发单位):
太空探索技术公司
制造商所在国:
美国
使用方式:
暂无
卫星简介
星链(Starlink)计划是由太空探索技术公司(SpaceX)提出的一个巨型低轨卫星互联网星座项目,计划在2019年至2024年间在太空搭建由约1.2万颗卫星组成的“星链”网络,其中1584颗将部署在地球上空550千米处的近地轨道,并从2020年开始工作。该卫星仍在工作。
2D轨道图
3D轨道图
轨道高度分析图
轨道倾角分析图
轨道综合分析图
查看轨道综合分析图
与全量物体交会距离演化趋势
与全量物体交会风险概率演化趋势